Year,Month,Day,Hour,Minute,Value (Times are PST for temperature in C)
2016,02,09,00,00,3.70
2016,02,09,00,01,3.70
2016,02,09,00,02,3.60
2016,02,09,00,03,3.60
2016,02,09,00,04,3.60
2016,02,09,00,05,3.60
2016,02,09,00,06,3.60
2016,02,09,00,07,3.60
2016,02,09,00,08,3.60
2016,02,09,00,09,3.60
2016,02,09,00,10,3.60
2016,02,09,00,11,3.60
2016,02,09,00,12,3.60
2016,02,09,00,13,3.60
2016,02,09,00,14,3.60
2016,02,09,00,15,3.60
2016,02,09,00,16,3.60
2016,02,09,00,17,3.60
2016,02,09,00,18,3.60
2016,02,09,00,19,3.60
2016,02,09,00,20,3.70
2016,02,09,00,21,3.70
2016,02,09,00,22,3.70
2016,02,09,00,23,3.70
2016,02,09,00,24,3.70
2016,02,09,00,25,3.70
2016,02,09,00,26,3.70
2016,02,09,00,27,3.70
2016,02,09,00,28,3.70
2016,02,09,00,29,3.70
2016,02,09,00,30,3.70
2016,02,09,00,31,3.70
2016,02,09,00,32,3.80
2016,02,09,00,33,3.80
2016,02,09,00,34,3.80
2016,02,09,00,35,3.70
2016,02,09,00,36,3.70
2016,02,09,00,37,3.70
2016,02,09,00,38,3.70
2016,02,09,00,39,3.70
2016,02,09,00,40,3.70
2016,02,09,00,41,3.60
2016,02,09,00,42,3.60
2016,02,09,00,43,3.60
2016,02,09,00,44,3.60
2016,02,09,00,45,3.60
2016,02,09,00,46,3.70
2016,02,09,00,47,3.70
2016,02,09,00,48,3.70
2016,02,09,00,49,3.70
2016,02,09,00,50,3.70
2016,02,09,00,51,3.80
2016,02,09,00,52,3.80
2016,02,09,00,53,3.80
2016,02,09,00,54,3.80
2016,02,09,00,55,3.80
2016,02,09,00,56,3.80
2016,02,09,00,57,3.80
2016,02,09,00,58,3.90
2016,02,09,00,59,3.90
2016,02,09,01,00,3.80
2016,02,09,01,01,3.80
2016,02,09,01,02,3.80
2016,02,09,01,03,3.80
2016,02,09,01,04,3.80
2016,02,09,01,05,3.80
2016,02,09,01,06,3.70
2016,02,09,01,07,3.70
2016,02,09,01,08,3.70
2016,02,09,01,09,3.70
2016,02,09,01,10,3.70
2016,02,09,01,11,3.70
2016,02,09,01,12,3.70
2016,02,09,01,13,3.60
2016,02,09,01,14,3.60
2016,02,09,01,15,3.60
2016,02,09,01,16,3.60
2016,02,09,01,17,3.60
2016,02,09,01,18,3.60
2016,02,09,01,19,3.60
2016,02,09,01,20,3.60
2016,02,09,01,21,3.60
2016,02,09,01,22,3.70
2016,02,09,01,23,3.70
2016,02,09,01,24,3.60
2016,02,09,01,25,3.60
2016,02,09,01,26,3.60
2016,02,09,01,27,3.60
2016,02,09,01,28,3.60
2016,02,09,01,29,3.60
2016,02,09,01,30,3.60
2016,02,09,01,31,3.60
2016,02,09,01,32,3.60
2016,02,09,01,33,3.60
2016,02,09,01,34,3.50
2016,02,09,01,35,3.50
2016,02,09,01,36,3.50
2016,02,09,01,37,3.40
2016,02,09,01,38,3.40
2016,02,09,01,39,3.40
2016,02,09,01,40,3.40
2016,02,09,01,41,3.30
2016,02,09,01,42,3.30
2016,02,09,01,43,3.30
2016,02,09,01,44,3.30
2016,02,09,01,45,3.30
2016,02,09,01,46,3.30
2016,02,09,01,47,3.20
2016,02,09,01,48,3.20
2016,02,09,01,49,3.20
2016,02,09,01,50,3.20
2016,02,09,01,51,3.20
2016,02,09,01,52,3.20
2016,02,09,01,53,3.20
2016,02,09,01,54,3.20
2016,02,09,01,55,3.20
2016,02,09,01,56,3.20
2016,02,09,01,57,3.10
2016,02,09,01,58,3.10
2016,02,09,01,59,3.10
2016,02,09,02,00,3.10
2016,02,09,02,01,3.10
2016,02,09,02,02,3.10
2016,02,09,02,03,3.00
2016,02,09,02,04,3.00
2016,02,09,02,05,3.00
2016,02,09,02,06,3.00
2016,02,09,02,07,3.00
2016,02,09,02,08,3.00
2016,02,09,02,09,3.00
2016,02,09,02,10,3.00
2016,02,09,02,11,3.10
2016,02,09,02,12,3.10
2016,02,09,02,13,3.10
2016,02,09,02,14,3.10
2016,02,09,02,15,3.10
2016,02,09,02,16,3.10
2016,02,09,02,17,3.10
2016,02,09,02,18,3.10
2016,02,09,02,19,3.10
2016,02,09,02,20,3.10
2016,02,09,02,21,3.00
2016,02,09,02,22,3.00
2016,02,09,02,23,3.00
2016,02,09,02,24,3.00
2016,02,09,02,25,2.90
2016,02,09,02,26,2.90
2016,02,09,02,27,2.90
2016,02,09,02,28,2.90
2016,02,09,02,29,2.90
2016,02,09,02,30,2.90
2016,02,09,02,31,2.90
2016,02,09,02,32,2.90
2016,02,09,02,33,2.90
2016,02,09,02,34,2.90
2016,02,09,02,35,2.90
2016,02,09,02,36,2.90
2016,02,09,02,37,2.90
2016,02,09,02,38,2.90
2016,02,09,02,39,2.90
2016,02,09,02,40,3.00
2016,02,09,02,41,3.00
2016,02,09,02,42,3.00
2016,02,09,02,43,3.00
2016,02,09,02,44,3.00
2016,02,09,02,45,3.00
2016,02,09,02,46,3.00
2016,02,09,02,47,2.90
2016,02,09,02,48,2.90
2016,02,09,02,49,2.90
2016,02,09,02,50,2.90
2016,02,09,02,51,2.90
2016,02,09,02,52,2.90
2016,02,09,02,53,2.80
2016,02,09,02,54,2.90
2016,02,09,02,55,2.90
2016,02,09,02,56,2.90
2016,02,09,02,57,2.90
2016,02,09,02,58,2.90
2016,02,09,02,59,2.90
2016,02,09,03,00,2.90
2016,02,09,03,01,2.90
2016,02,09,03,02,2.90
2016,02,09,03,03,2.80
2016,02,09,03,04,2.80
2016,02,09,03,05,2.80
2016,02,09,03,06,2.70
2016,02,09,03,07,2.70
2016,02,09,03,08,2.70
2016,02,09,03,09,2.70
2016,02,09,03,10,2.70
2016,02,09,03,11,2.70
2016,02,09,03,12,2.70
2016,02,09,03,13,2.70
2016,02,09,03,14,2.70
2016,02,09,03,15,2.70
2016,02,09,03,16,2.80
2016,02,09,03,17,2.80
2016,02,09,03,18,2.80
2016,02,09,03,19,2.90
2016,02,09,03,20,2.90
2016,02,09,03,21,2.90
2016,02,09,03,22,2.90
2016,02,09,03,23,2.90
2016,02,09,03,24,2.90
2016,02,09,03,25,2.90
2016,02,09,03,26,2.90
2016,02,09,03,27,2.90
2016,02,09,03,28,2.90
2016,02,09,03,29,2.80
2016,02,09,03,30,2.80
2016,02,09,03,31,2.80
2016,02,09,03,32,2.80
2016,02,09,03,33,2.70
2016,02,09,03,34,2.70
2016,02,09,03,35,2.70
2016,02,09,03,36,2.70
2016,02,09,03,37,2.70
2016,02,09,03,38,2.80
2016,02,09,03,39,2.90
2016,02,09,03,40,2.90
2016,02,09,03,41,2.90
2016,02,09,03,42,2.90
2016,02,09,03,43,2.90
2016,02,09,03,44,2.90
2016,02,09,03,45,2.90
2016,02,09,03,46,2.90
2016,02,09,03,47,3.00
2016,02,09,03,48,3.00
2016,02,09,03,49,3.00
2016,02,09,03,50,2.90
2016,02,09,03,51,2.90
2016,02,09,03,52,2.90
2016,02,09,03,53,2.80
2016,02,09,03,54,2.80
2016,02,09,03,55,2.80
2016,02,09,03,56,2.80
2016,02,09,03,57,2.80
2016,02,09,03,58,2.80
2016,02,09,03,59,2.80
2016,02,09,04,00,2.80
2016,02,09,04,01,2.80
2016,02,09,04,02,2.80
2016,02,09,04,03,2.80
2016,02,09,04,04,2.90
2016,02,09,04,05,2.90
2016,02,09,04,06,2.90
2016,02,09,04,07,2.90
2016,02,09,04,08,2.90
2016,02,09,04,09,2.90
2016,02,09,04,10,2.90
2016,02,09,04,11,2.90
2016,02,09,04,12,2.90
2016,02,09,04,13,2.90
2016,02,09,04,14,2.90
2016,02,09,04,15,2.90
2016,02,09,04,16,2.90
2016,02,09,04,17,2.90
2016,02,09,04,18,2.90
2016,02,09,04,19,2.90
2016,02,09,04,20,2.80
2016,02,09,04,21,2.80
2016,02,09,04,22,2.80
2016,02,09,04,23,2.80
2016,02,09,04,24,2.80
2016,02,09,04,25,2.80
2016,02,09,04,26,2.70
2016,02,09,04,27,2.70
2016,02,09,04,28,2.70
2016,02,09,04,29,2.70
2016,02,09,04,30,2.70
2016,02,09,04,31,2.70
2016,02,09,04,32,2.70
2016,02,09,04,33,2.70
2016,02,09,04,34,2.70
2016,02,09,04,35,2.70
2016,02,09,04,36,2.70
2016,02,09,04,37,2.70
2016,02,09,04,38,2.70
2016,02,09,04,39,2.70
2016,02,09,04,40,2.60
2016,02,09,04,41,2.60
2016,02,09,04,42,2.60
2016,02,09,04,43,2.60
2016,02,09,04,44,2.50
2016,02,09,04,45,2.50
2016,02,09,04,46,2.50
2016,02,09,04,47,2.40
2016,02,09,04,48,2.40
2016,02,09,04,49,2.40
2016,02,09,04,50,2.40
2016,02,09,04,51,2.30
2016,02,09,04,52,2.30
2016,02,09,04,53,2.30
2016,02,09,04,54,2.30
2016,02,09,04,55,2.30
2016,02,09,04,56,2.30
2016,02,09,04,57,2.30
2016,02,09,04,58,2.40
2016,02,09,04,59,2.30
2016,02,09,05,00,2.40
2016,02,09,05,01,2.30
2016,02,09,05,02,2.30
2016,02,09,05,03,2.30
2016,02,09,05,04,2.30
2016,02,09,05,05,2.30
2016,02,09,05,06,2.30
2016,02,09,05,07,2.30
2016,02,09,05,08,2.30
2016,02,09,05,09,2.20
2016,02,09,05,10,2.20
2016,02,09,05,11,2.20
2016,02,09,05,12,2.20
2016,02,09,05,13,2.20
2016,02,09,05,14,2.20
2016,02,09,05,15,2.20
2016,02,09,05,16,2.20
2016,02,09,05,17,2.20
2016,02,09,05,18,2.20
2016,02,09,05,19,2.10
2016,02,09,05,20,2.10
2016,02,09,05,21,2.10
2016,02,09,05,22,2.10
2016,02,09,05,23,2.10
2016,02,09,05,24,2.10
2016,02,09,05,25,2.10
2016,02,09,05,26,2.10
2016,02,09,05,27,2.10
2016,02,09,05,28,2.10
2016,02,09,05,29,2.10
2016,02,09,05,30,2.10
2016,02,09,05,31,2.10
2016,02,09,05,32,2.10
2016,02,09,05,33,2.10
2016,02,09,05,34,2.10
2016,02,09,05,35,2.10
2016,02,09,05,36,2.10
2016,02,09,05,37,2.10
2016,02,09,05,38,2.10
2016,02,09,05,39,2.10
2016,02,09,05,40,2.10
2016,02,09,05,41,2.10
2016,02,09,05,42,2.20
2016,02,09,05,43,2.20
2016,02,09,05,44,2.20
2016,02,09,05,45,2.20
2016,02,09,05,46,2.20
2016,02,09,05,47,2.20
2016,02,09,05,48,2.20
2016,02,09,05,49,2.10
2016,02,09,05,50,2.10
2016,02,09,05,51,2.10
2016,02,09,05,52,2.10
2016,02,09,05,53,2.10
2016,02,09,05,54,2.10
2016,02,09,05,55,2.10
2016,02,09,05,56,2.10
2016,02,09,05,57,2.10
2016,02,09,05,58,2.10
2016,02,09,05,59,2.10
2016,02,09,06,00,2.10
2016,02,09,06,01,2.00
2016,02,09,06,02,2.00
2016,02,09,06,03,2.00
2016,02,09,06,04,2.10
2016,02,09,06,05,2.10
2016,02,09,06,06,2.10
2016,02,09,06,07,2.20
2016,02,09,06,08,2.20
2016,02,09,06,09,2.30
2016,02,09,06,10,2.30
2016,02,09,06,11,2.30
2016,02,09,06,12,2.30
2016,02,09,06,13,2.30
2016,02,09,06,14,2.30
2016,02,09,06,15,2.30
2016,02,09,06,16,2.30
2016,02,09,06,17,2.30
2016,02,09,06,18,2.30
2016,02,09,06,19,2.40
2016,02,09,06,20,2.40
2016,02,09,06,21,2.40
2016,02,09,06,22,2.50
2016,02,09,06,23,2.50
2016,02,09,06,24,2.50
2016,02,09,06,25,2.50
2016,02,09,06,26,2.50
2016,02,09,06,27,2.50
2016,02,09,06,28,2.50
2016,02,09,06,29,2.50
2016,02,09,06,30,2.50
2016,02,09,06,31,2.50
2016,02,09,06,32,2.50
2016,02,09,06,33,2.50
2016,02,09,06,34,2.50
2016,02,09,06,35,2.50
2016,02,09,06,36,2.50
2016,02,09,06,37,2.40
2016,02,09,06,38,2.40
2016,02,09,06,39,2.40
2016,02,09,06,40,2.40
2016,02,09,06,41,2.40
2016,02,09,06,42,2.40
2016,02,09,06,43,2.40
2016,02,09,06,44,2.30
2016,02,09,06,45,2.30
2016,02,09,06,46,2.30
2016,02,09,06,47,2.40
2016,02,09,06,48,2.40
2016,02,09,06,49,2.40
2016,02,09,06,50,2.40
2016,02,09,06,51,2.40
2016,02,09,06,52,2.40
2016,02,09,06,53,2.40
2016,02,09,06,54,2.40
2016,02,09,06,55,2.40
2016,02,09,06,56,2.40
2016,02,09,06,57,2.40
2016,02,09,06,58,2.40
2016,02,09,06,59,2.40
2016,02,09,07,00,2.40
2016,02,09,07,01,2.40
2016,02,09,07,02,2.40
2016,02,09,07,03,2.40
2016,02,09,07,04,2.40
2016,02,09,07,05,2.40
2016,02,09,07,06,2.40
2016,02,09,07,07,2.40
2016,02,09,07,08,2.40
2016,02,09,07,09,2.40
2016,02,09,07,10,2.40
2016,02,09,07,11,2.40
2016,02,09,07,12,2.40
2016,02,09,07,13,2.30
2016,02,09,07,14,2.30
2016,02,09,07,15,2.30
2016,02,09,07,16,2.30
2016,02,09,07,17,2.30
2016,02,09,07,18,2.30
2016,02,09,07,19,2.30
2016,02,09,07,20,2.20
2016,02,09,07,21,2.20
2016,02,09,07,22,2.20
2016,02,09,07,23,2.20
2016,02,09,07,24,2.20
2016,02,09,07,25,2.20
2016,02,09,07,26,2.20
2016,02,09,07,27,2.20
2016,02,09,07,28,2.20
2016,02,09,07,29,2.20
2016,02,09,07,30,2.20
2016,02,09,07,31,2.20
2016,02,09,07,32,2.20
2016,02,09,07,33,2.10
2016,02,09,07,34,2.10
2016,02,09,07,35,2.10
2016,02,09,07,36,2.10
2016,02,09,07,37,2.10
2016,02,09,07,38,2.10
2016,02,09,07,39,2.10
2016,02,09,07,40,2.00
2016,02,09,07,41,2.10
2016,02,09,07,42,2.10
2016,02,09,07,43,2.10
2016,02,09,07,44,2.10
2016,02,09,07,45,2.00
2016,02,09,07,46,2.00
2016,02,09,07,47,2.00
2016,02,09,07,48,2.00
2016,02,09,07,49,2.10
2016,02,09,07,50,2.10
2016,02,09,07,51,2.10
2016,02,09,07,52,2.10
2016,02,09,07,53,2.20
2016,02,09,07,54,2.20
2016,02,09,07,55,2.20
2016,02,09,07,56,2.20
2016,02,09,07,57,2.20
2016,02,09,07,58,2.20
2016,02,09,07,59,2.20
2016,02,09,08,00,2.20
2016,02,09,08,01,2.20
2016,02,09,08,02,2.20
2016,02,09,08,03,2.20
2016,02,09,08,04,2.20
2016,02,09,08,05,2.20
2016,02,09,08,06,2.20
2016,02,09,08,07,2.20
2016,02,09,08,08,2.20
2016,02,09,08,09,2.20
2016,02,09,08,10,2.20
2016,02,09,08,11,2.20
2016,02,09,08,12,2.20
2016,02,09,08,13,2.20
2016,02,09,08,14,2.20
2016,02,09,08,15,2.20
2016,02,09,08,16,2.20
2016,02,09,08,17,2.20
2016,02,09,08,18,2.20
2016,02,09,08,19,2.20
2016,02,09,08,20,2.30
2016,02,09,08,21,2.30
2016,02,09,08,22,2.30
2016,02,09,08,23,2.30
2016,02,09,08,24,2.30
2016,02,09,08,25,2.30
2016,02,09,08,26,2.30
2016,02,09,08,27,2.30
2016,02,09,08,28,2.30
2016,02,09,08,29,2.30
2016,02,09,08,30,2.30
2016,02,09,08,31,2.30
2016,02,09,08,32,2.30
2016,02,09,08,33,2.30
2016,02,09,08,34,2.30
2016,02,09,08,35,2.30
2016,02,09,08,36,2.30
2016,02,09,08,37,2.30
2016,02,09,08,38,2.30
2016,02,09,08,39,2.30
2016,02,09,08,40,2.30
2016,02,09,08,41,2.30
2016,02,09,08,42,2.30
2016,02,09,08,43,2.30
2016,02,09,08,44,2.40
2016,02,09,08,45,2.40
2016,02,09,08,46,2.40
2016,02,09,08,47,2.40
2016,02,09,08,48,2.40
2016,02,09,08,49,2.40
2016,02,09,08,50,2.40
2016,02,09,08,51,2.50
2016,02,09,08,52,2.50
2016,02,09,08,53,2.50
2016,02,09,08,54,2.50
2016,02,09,08,55,2.50
2016,02,09,08,56,2.50
2016,02,09,08,57,2.50
2016,02,09,08,58,2.60
2016,02,09,08,59,2.60
2016,02,09,09,00,2.60
2016,02,09,09,01,2.70
2016,02,09,09,02,2.70
2016,02,09,09,03,2.70
2016,02,09,09,04,2.80
2016,02,09,09,05,2.80
2016,02,09,09,06,2.90
2016,02,09,09,07,2.90
2016,02,09,09,08,3.00
2016,02,09,09,09,3.00
2016,02,09,09,10,3.10
2016,02,09,09,11,3.10
2016,02,09,09,12,3.20
2016,02,09,09,13,3.20
2016,02,09,09,14,3.30
2016,02,09,09,15,3.40
2016,02,09,09,16,3.40
2016,02,09,09,17,3.50
2016,02,09,09,18,3.60
2016,02,09,09,19,3.60
2016,02,09,09,20,3.70
2016,02,09,09,21,3.70
2016,02,09,09,22,3.80
2016,02,09,09,23,3.80
2016,02,09,09,24,3.80
2016,02,09,09,25,3.80
2016,02,09,09,26,3.70
2016,02,09,09,27,3.70
2016,02,09,09,28,3.70
2016,02,09,09,29,3.70
2016,02,09,09,30,3.70
2016,02,09,09,31,3.70
2016,02,09,09,32,3.80
2016,02,09,09,33,3.80
2016,02,09,09,34,3.80
2016,02,09,09,35,3.80
2016,02,09,09,36,3.90
2016,02,09,09,37,3.90
2016,02,09,09,38,3.90
2016,02,09,09,39,3.90
2016,02,09,09,40,4.00
2016,02,09,09,41,4.00
2016,02,09,09,42,4.00
2016,02,09,09,43,4.10
2016,02,09,09,44,4.10
2016,02,09,09,45,4.10
2016,02,09,09,46,4.20
2016,02,09,09,47,4.20
2016,02,09,09,48,4.20
2016,02,09,09,49,4.30
2016,02,09,09,50,4.30
2016,02,09,09,51,4.30
2016,02,09,09,52,4.40
2016,02,09,09,53,4.40
2016,02,09,09,54,4.50
2016,02,09,09,55,4.50
2016,02,09,09,56,4.60
2016,02,09,09,57,4.60
2016,02,09,09,58,4.70
2016,02,09,09,59,4.70
2016,02,09,10,00,4.70
2016,02,09,10,01,4.80
2016,02,09,10,02,4.80
2016,02,09,10,03,4.90
2016,02,09,10,04,4.90
2016,02,09,10,05,5.00
2016,02,09,10,06,5.00
2016,02,09,10,07,5.10
2016,02,09,10,08,5.10
2016,02,09,10,09,5.20
2016,02,09,10,10,5.30
2016,02,09,10,11,5.30
2016,02,09,10,12,5.30
2016,02,09,10,13,5.40
2016,02,09,10,14,5.40
2016,02,09,10,15,5.40
2016,02,09,10,16,5.40
2016,02,09,10,17,5.40
2016,02,09,10,18,5.50
2016,02,09,10,19,5.50
2016,02,09,10,20,5.50
2016,02,09,10,21,5.50
2016,02,09,10,22,5.50
2016,02,09,10,23,5.50
2016,02,09,10,24,5.50
2016,02,09,10,25,5.50
2016,02,09,10,26,5.60
2016,02,09,10,27,5.60
2016,02,09,10,28,5.60
2016,02,09,10,29,5.70
2016,02,09,10,30,5.70
2016,02,09,10,31,5.70
2016,02,09,10,32,5.70
2016,02,09,10,33,5.70
2016,02,09,10,34,5.70
2016,02,09,10,35,5.70
2016,02,09,10,36,5.70
2016,02,09,10,37,5.70
2016,02,09,10,38,5.70
2016,02,09,10,39,5.80
2016,02,09,10,40,5.80
2016,02,09,10,41,5.90
2016,02,09,10,42,6.00
2016,02,09,10,43,6.10
2016,02,09,10,44,6.20
2016,02,09,10,45,6.30
2016,02,09,10,46,6.40
2016,02,09,10,47,6.50
2016,02,09,10,48,6.60
2016,02,09,10,49,6.60
2016,02,09,10,50,6.70
2016,02,09,10,51,6.70
2016,02,09,10,52,6.80
2016,02,09,10,53,6.80
2016,02,09,10,54,6.90
2016,02,09,10,55,7.00
2016,02,09,10,56,7.10
2016,02,09,10,57,7.20
2016,02,09,10,58,7.20
2016,02,09,10,59,7.30
2016,02,09,11,00,7.40
2016,02,09,11,01,7.50
2016,02,09,11,02,7.50
2016,02,09,11,03,7.60
2016,02,09,11,04,7.70
2016,02,09,11,05,7.80
2016,02,09,11,06,7.90
2016,02,09,11,07,8.00
2016,02,09,11,08,8.10
2016,02,09,11,09,8.10
2016,02,09,11,10,8.20
2016,02,09,11,11,8.30
2016,02,09,11,12,8.30
2016,02,09,11,13,8.30
2016,02,09,11,14,8.30
2016,02,09,11,15,8.30
2016,02,09,11,16,8.40
2016,02,09,11,17,8.40
2016,02,09,11,18,8.40
2016,02,09,11,19,8.50
2016,02,09,11,20,8.50
2016,02,09,11,21,8.60
2016,02,09,11,22,8.70
2016,02,09,11,23,8.70
2016,02,09,11,24,8.80
2016,02,09,11,25,8.90
2016,02,09,11,26,9.00
2016,02,09,11,27,9.10
2016,02,09,11,28,9.20
2016,02,09,11,29,9.20
2016,02,09,11,30,9.30
2016,02,09,11,31,9.40
2016,02,09,11,32,9.40
2016,02,09,11,33,9.40
2016,02,09,11,34,9.50
2016,02,09,11,35,9.60
2016,02,09,11,36,9.60
2016,02,09,11,37,9.70
2016,02,09,11,38,9.70
2016,02,09,11,39,9.80
2016,02,09,11,40,9.80
2016,02,09,11,41,9.90
2016,02,09,11,42,10.00
2016,02,09,11,43,10.10
2016,02,09,11,44,10.20
2016,02,09,11,45,10.20
2016,02,09,11,46,10.30
2016,02,09,11,47,10.40
2016,02,09,11,48,10.50
2016,02,09,11,49,10.50
2016,02,09,11,50,10.60
2016,02,09,11,51,10.60
2016,02,09,11,52,10.50
2016,02,09,11,53,10.40
2016,02,09,11,54,10.60
2016,02,09,11,55,10.60
2016,02,09,11,56,10.80
2016,02,09,11,57,10.90
2016,02,09,11,58,11.00
2016,02,09,11,59,11.20
2016,02,09,12,00,11.30
2016,02,09,12,01,11.30
2016,02,09,12,02,11.30
2016,02,09,12,03,11.40
2016,02,09,12,04,11.50
2016,02,09,12,05,11.50
2016,02,09,12,06,11.60
2016,02,09,12,07,11.70
2016,02,09,12,08,11.80
2016,02,09,12,09,11.90
2016,02,09,12,10,12.00
2016,02,09,12,11,12.10
2016,02,09,12,12,12.20
2016,02,09,12,13,12.30
2016,02,09,12,14,12.40
2016,02,09,12,15,12.50
2016,02,09,12,16,12.50
2016,02,09,12,17,12.60
2016,02,09,12,18,12.60
2016,02,09,12,19,12.70
2016,02,09,12,20,12.70
2016,02,09,12,21,12.70
2016,02,09,12,22,12.70
2016,02,09,12,23,12.80
2016,02,09,12,24,12.80
2016,02,09,12,25,12.80
2016,02,09,12,26,12.80
2016,02,09,12,27,12.80
2016,02,09,12,28,12.80
2016,02,09,12,29,12.80
2016,02,09,12,30,12.90
2016,02,09,12,31,12.90
2016,02,09,12,32,13.00
2016,02,09,12,33,13.10
2016,02,09,12,34,13.10
2016,02,09,12,35,13.20
2016,02,09,12,36,13.20
2016,02,09,12,37,13.30
2016,02,09,12,38,13.40
2016,02,09,12,39,13.40
2016,02,09,12,40,13.50
2016,02,09,12,41,13.50
2016,02,09,12,42,13.60
2016,02,09,12,43,13.60
2016,02,09,12,44,13.60
2016,02,09,12,45,13.60
2016,02,09,12,46,13.70
2016,02,09,12,47,13.60
2016,02,09,12,48,13.60
2016,02,09,12,49,13.60
2016,02,09,12,50,13.70
2016,02,09,12,51,13.70
2016,02,09,12,52,13.70
2016,02,09,12,53,13.70
2016,02,09,12,54,13.70
2016,02,09,12,55,13.70
2016,02,09,12,56,13.70
2016,02,09,12,57,13.70
2016,02,09,12,58,13.70
2016,02,09,12,59,13.70
2016,02,09,13,00,13.60
2016,02,09,13,01,13.60
2016,02,09,13,02,13.50
2016,02,09,13,03,13.50
2016,02,09,13,04,13.50
2016,02,09,13,05,13.60
2016,02,09,13,06,13.60
2016,02,09,13,07,13.70
2016,02,09,13,08,13.80
2016,02,09,13,09,13.80
2016,02,09,13,10,13.90
2016,02,09,13,11,13.90
2016,02,09,13,12,13.90
2016,02,09,13,13,14.00
2016,02,09,13,14,14.00
2016,02,09,13,15,14.10
2016,02,09,13,16,14.20
2016,02,09,13,17,14.30
2016,02,09,13,18,14.30
2016,02,09,13,19,14.30
2016,02,09,13,20,14.30
2016,02,09,13,21,14.30
2016,02,09,13,22,14.30
2016,02,09,13,23,14.40
2016,02,09,13,24,14.40
2016,02,09,13,25,14.50
2016,02,09,13,26,14.50
2016,02,09,13,27,14.60
2016,02,09,13,28,14.60
2016,02,09,13,29,14.70
2016,02,09,13,30,14.70
2016,02,09,13,31,14.70
2016,02,09,13,32,14.70
2016,02,09,13,33,14.80
2016,02,09,13,34,14.90
2016,02,09,13,35,14.90
2016,02,09,13,36,15.00
2016,02,09,13,37,15.00
2016,02,09,13,38,15.00
2016,02,09,13,39,15.00
2016,02,09,13,40,15.00
2016,02,09,13,41,15.00
2016,02,09,13,42,15.10
2016,02,09,13,43,15.10
2016,02,09,13,44,15.20
2016,02,09,13,45,15.20
2016,02,09,13,46,15.20
2016,02,09,13,47,15.20
2016,02,09,13,48,15.20
2016,02,09,13,49,15.20
2016,02,09,13,50,15.20
2016,02,09,13,51,15.20
2016,02,09,13,52,15.30
2016,02,09,13,53,15.30
2016,02,09,13,54,15.30
2016,02,09,13,55,15.40
2016,02,09,13,56,15.40
2016,02,09,13,57,15.40
2016,02,09,13,58,15.30
2016,02,09,13,59,15.30
2016,02,09,14,00,15.30
2016,02,09,14,01,15.20
2016,02,09,14,02,15.20
2016,02,09,14,03,15.20
2016,02,09,14,04,15.20
2016,02,09,14,05,15.20
2016,02,09,14,06,15.20
2016,02,09,14,07,15.20
2016,02,09,14,08,15.20
2016,02,09,14,09,15.10
2016,02,09,14,10,15.10
2016,02,09,14,11,15.10
2016,02,09,14,12,15.10
2016,02,09,14,13,15.10
2016,02,09,14,14,15.10
2016,02,09,14,15,15.10
2016,02,09,14,16,15.00
2016,02,09,14,17,15.00
2016,02,09,14,18,15.00
2016,02,09,14,19,15.10
2016,02,09,14,20,15.10
2016,02,09,14,21,15.10
2016,02,09,14,22,15.20
2016,02,09,14,23,15.20
2016,02,09,14,24,15.30
2016,02,09,14,25,15.30
2016,02,09,14,26,15.40
2016,02,09,14,27,15.40
2016,02,09,14,28,15.40
2016,02,09,14,29,15.40
2016,02,09,14,30,15.40
2016,02,09,14,31,15.40
2016,02,09,14,32,15.50
2016,02,09,14,33,15.50
2016,02,09,14,34,15.50
2016,02,09,14,35,15.60
2016,02,09,14,36,15.60
2016,02,09,14,37,15.60
2016,02,09,14,38,15.60
2016,02,09,14,39,15.70
2016,02,09,14,40,15.70
2016,02,09,14,41,15.80
2016,02,09,14,42,15.80
2016,02,09,14,43,15.80
2016,02,09,14,44,15.90
2016,02,09,14,45,15.90
2016,02,09,14,46,15.90
2016,02,09,14,47,15.90
2016,02,09,14,48,15.90
2016,02,09,14,49,15.90
2016,02,09,14,50,15.90
2016,02,09,14,51,15.90
2016,02,09,14,52,15.90
2016,02,09,14,53,15.90
2016,02,09,14,54,15.90
2016,02,09,14,55,15.90
2016,02,09,14,56,15.90
2016,02,09,14,57,15.80
2016,02,09,14,58,15.80
2016,02,09,14,59,15.80
2016,02,09,15,00,15.70
2016,02,09,15,01,15.70
2016,02,09,15,02,15.70
2016,02,09,15,03,15.70
2016,02,09,15,04,15.70
2016,02,09,15,05,15.60
2016,02,09,15,06,15.60
2016,02,09,15,07,15.50
2016,02,09,15,08,15.50
2016,02,09,15,09,15.40
2016,02,09,15,10,15.40
2016,02,09,15,11,15.30
2016,02,09,15,12,15.20
2016,02,09,15,13,15.20
2016,02,09,15,14,15.00
2016,02,09,15,15,15.00
2016,02,09,15,16,15.00
2016,02,09,15,17,15.00
2016,02,09,15,18,14.90
2016,02,09,15,19,14.80
2016,02,09,15,20,14.70
2016,02,09,15,21,14.60
2016,02,09,15,22,14.50
2016,02,09,15,23,14.40
2016,02,09,15,24,14.30
2016,02,09,15,25,14.20
2016,02,09,15,26,14.10
2016,02,09,15,27,14.00
2016,02,09,15,28,14.00
2016,02,09,15,29,13.90
2016,02,09,15,30,13.90
2016,02,09,15,31,13.80
2016,02,09,15,32,13.80
2016,02,09,15,33,13.70
2016,02,09,15,34,13.70
2016,02,09,15,35,13.70
2016,02,09,15,36,13.70
2016,02,09,15,37,13.70
2016,02,09,15,38,13.70
2016,02,09,15,39,13.70
2016,02,09,15,40,13.70
2016,02,09,15,41,13.70
2016,02,09,15,42,13.70
2016,02,09,15,43,13.70
2016,02,09,15,44,13.70
2016,02,09,15,45,13.60
2016,02,09,15,46,13.60
2016,02,09,15,47,13.60
2016,02,09,15,48,13.60
2016,02,09,15,49,13.60
2016,02,09,15,50,13.60
2016,02,09,15,51,13.60
2016,02,09,15,52,13.60
2016,02,09,15,53,13.70
2016,02,09,15,54,13.70
2016,02,09,15,55,13.80
2016,02,09,15,56,13.80
2016,02,09,15,57,13.90
2016,02,09,15,58,14.00
2016,02,09,15,59,14.10
2016,02,09,16,00,14.20
2016,02,09,16,01,14.20
2016,02,09,16,02,14.20
2016,02,09,16,03,14.30
2016,02,09,16,04,14.30
2016,02,09,16,05,14.30
2016,02,09,16,06,14.30
2016,02,09,16,07,14.30
2016,02,09,16,08,14.20
2016,02,09,16,09,14.20
2016,02,09,16,10,14.10
2016,02,09,16,11,14.10
2016,02,09,16,12,14.00
2016,02,09,16,13,14.00
2016,02,09,16,14,13.90
2016,02,09,16,15,13.80
2016,02,09,16,16,13.80
2016,02,09,16,17,13.70
2016,02,09,16,18,13.70
2016,02,09,16,19,13.60
2016,02,09,16,20,13.60
2016,02,09,16,21,13.50
2016,02,09,16,22,13.40
2016,02,09,16,23,13.30
2016,02,09,16,24,13.20
2016,02,09,16,25,13.10
2016,02,09,16,26,13.10
2016,02,09,16,27,13.00
2016,02,09,16,28,12.90
2016,02,09,16,29,12.80
2016,02,09,16,30,12.70
2016,02,09,16,31,12.60
2016,02,09,16,32,12.60
2016,02,09,16,33,12.50
2016,02,09,16,34,12.40
2016,02,09,16,35,12.40
2016,02,09,16,36,12.30
2016,02,09,16,37,12.20
2016,02,09,16,38,12.20
2016,02,09,16,39,12.10
2016,02,09,16,40,12.10
2016,02,09,16,41,12.00
2016,02,09,16,42,12.00
2016,02,09,16,43,11.90
2016,02,09,16,44,11.90
2016,02,09,16,45,11.90
2016,02,09,16,46,11.80
2016,02,09,16,47,11.80
2016,02,09,16,48,11.80
2016,02,09,16,49,11.70
2016,02,09,16,50,11.70
2016,02,09,16,51,11.70
2016,02,09,16,52,11.60
2016,02,09,16,53,11.60
2016,02,09,16,54,11.60
2016,02,09,16,55,11.60
2016,02,09,16,56,11.50
2016,02,09,16,57,11.50
2016,02,09,16,58,11.50
2016,02,09,16,59,11.40
2016,02,09,17,00,11.40
2016,02,09,17,01,11.40
2016,02,09,17,02,11.40
2016,02,09,17,03,11.30
2016,02,09,17,04,11.30
2016,02,09,17,05,11.30
2016,02,09,17,06,11.30
2016,02,09,17,07,11.30
2016,02,09,17,08,11.20
2016,02,09,17,09,11.20
2016,02,09,17,10,11.20
2016,02,09,17,11,11.10
2016,02,09,17,12,11.10
2016,02,09,17,13,11.10
2016,02,09,17,14,11.00
2016,02,09,17,15,10.90
2016,02,09,17,16,10.90
2016,02,09,17,17,10.80
2016,02,09,17,18,10.80
2016,02,09,17,19,10.80
2016,02,09,17,20,10.80
2016,02,09,17,21,10.70
2016,02,09,17,22,10.70
2016,02,09,17,23,10.60
2016,02,09,17,24,10.60
2016,02,09,17,25,10.50
2016,02,09,17,26,10.50
2016,02,09,17,27,10.40
2016,02,09,17,28,10.30
2016,02,09,17,29,10.10
2016,02,09,17,30,10.00
2016,02,09,17,31,9.90
2016,02,09,17,32,9.80
2016,02,09,17,33,9.80
2016,02,09,17,34,9.70
2016,02,09,17,35,9.60
2016,02,09,17,36,9.60
2016,02,09,17,37,9.60
2016,02,09,17,38,9.50
2016,02,09,17,39,9.40
2016,02,09,17,40,9.40
2016,02,09,17,41,9.30
2016,02,09,17,42,9.30
2016,02,09,17,43,9.20
2016,02,09,17,44,9.20
2016,02,09,17,45,9.20
2016,02,09,17,46,9.10
2016,02,09,17,47,9.10
2016,02,09,17,48,9.10
2016,02,09,17,49,9.00
2016,02,09,17,50,8.90